This demonstration page uses our WeatherBlox Daily Observations layout. Learn more.

Left ArrowRight Arrow

44.89941, -97.11507

Hourly Observations for April 15, 2019

Temp ( °F °C ) Dew Point ( °F °C ) Humidity (%) Winds ( mph kmh ) Pressure ( in mb ) Visibility ( mi km ) Precip ( " mm )
12:53 am 00:53 Clear 30 -1.1 24 -4.4 79 79 SE 10 17 29.82 1010 10 16 0.00 0.00
1:53 am 01:53 Clear 30 -1.1 25 -3.9 82 82 SSE 12 19 29.82 1010 10 16 0.00 0.00
2:53 am 02:53 Clear 30 -1.1 25 -3.9 82 82 SSE 14 22 29.80 1009 10 16 0.00 0.00
3:53 am 03:53 Clear 31 -0.6 26 -3.3 82 82 SSE 15 24 29.79 1009 10 16 0.00 0.00
4:53 am 04:53 Clear 31 -0.6 26 -3.3 82 82 SE 14 22 29.77 1008 10 16 0.00 0.00
5:53 am 05:53 Clear 31 -0.6 26 -3.3 82 82 SSE 13 20 29.75 1008 10 16 0.00 0.00
6:53 am 06:53 Sunny 31 -0.6 26 -3.3 82 82 SSE 13 20 29.76 1008 10 16 0.00 0.00
7:53 am 07:53 Sunny 32 0 27 -2.8 82 82 SSE 13 20 29.76 1008 10 16 0.00 0.00
8:53 am 08:53 Sunny 35 1.7 28 -2.2 76 76 SSE 15 24 29.76 1008 10 16 0.00 0.00
9:53 am 09:53 Partly Cloudy 37 2.8 29 -1.7 73 73 SSE 14 22 29.74 1007 10 16 0.00 0.00
10:53 am 10:53 Partly Cloudy 37 2.8 30 -1.1 76 76 S 14 22 29.76 1008 10 16 0.00 0.00
11:53 am 11:53 Mostly Cloudy 37 2.8 31 -0.6 79 79 S 13 20 29.76 1008 10 16 0.00 0.00
12:53 pm 12:53 Partly Cloudy 39 3.9 31 -0.6 73 73 S 8 13 29.77 1008 10 16 0.00 0.00
1:53 pm 13:53 Cloudy 40 4.4 32 0 73 73 S 3 6 29.78 1009 10 16 0.00 0.00
2:53 pm 14:53 Cloudy 43 6.1 32 0 65 65 Calm 29.77 1008 10 16 0.00 0.00
3:53 pm 15:53 Sunny 45 7.2 32 0 61 61 NW 6 9 29.78 1009 10 16 0.00 0.00
4:53 pm 16:53 Partly Cloudy 45 7.2 33 0.6 63 63 N 8 13 29.80 1009 10 16 0.00 0.00
5:53 pm 17:53 Sunny 45 7.2 33 0.6 63 63 NE 3 6 29.80 1009 10 16 0.00 0.00
6:53 pm 18:53 Sunny 46 7.8 33 0.6 61 61 Calm 29.81 1010 10 16 0.00 0.00
7:53 pm 19:53 Sunny 41 5 32 0 70 70 NNW 5 7 29.82 1010 10 16 0.00 0.00
8:53 pm 20:53 Clear 39 3.9 32 0 76 76 Calm 29.83 1010 10 16 0.00 0.00
9:53 pm 21:53 Clear 37 2.8 31 -0.6 79 79 Calm 29.84 1010 10 16 0.00 0.00
10:53 pm 22:53 Clear 35 1.7 30 -1.1 82 82 W 3 6 29.86 1011 10 16 0.00 0.00
11:53 pm 23:53 Clear 33 0.6 30 -1.1 89 89 Calm 29.87 1012 9 14 0.00 0.00

Powered by AerisWeather